METEOR 2-8 DEB

Satellite information

Favourite Embed

Satellite Type and Status

DEBRISIN ORBIT

Key statistics

Satellite METEOR 2-8 DEB at a glance.

Uptime

15752

Days in orbit

Revolutions

≈ 14.3

Per day

Orbit

LEO

Low Earth Orbit

Inclination

82.5

Latest

Satellite identification and parameters

Extended collection of information and parameters for METEOR 2-8 DEB.

Object identification

Identified? True

Debris? True

Object name: METEOR 2-8 DEB

International designator: 1982-025D

Object number (NORAD): 36319

Object ID (CCSDS): 36319

Country: COMMONWEALTH OF INDEPENDENT STATES (CIS)

Current information (Y/N): Y

RCS size: SMALL

Orbital parameters

Period: 100.691 minutes

Inclination: 82.5211 deg

SMA: 7169.49 km

Apoapsis: 810.563 km

Periapsis: 772.148 km

RAAN: 155.8523 deg

Eccentricy: 0.0026791

Argument of periapsis: 128.9776 deg

Mean anomaly: 231.3802 deg

Mean motion: 14.3011294 rev/day

Mean motion (dot): 0.00004092 rev/day2

B* drag term: 0.001571 1/REarth

Two-line elements (TLE)

Creation date: May 8, 2025, 3:01 a.m.

Reference frame: TEME

Reference center: EARTH

Epoch: May 7, 2025, 9:19 a.m. UTC

TLE line 0: 0 METEOR 2-8 DEB

TLE line 1: 1 36319U 82025D 25127.38834749 .00004092 00000-0 15710-2 0 9993

TLE line 2: 2 36319 82.5211 155.8523 0026791 128.9776 231.3802 14.30112940135976

Live tracking on map

Real-time ground track for satellite METEOR 2-8 DEB.

In-orbit conjunctions

A list of the most updated potential collisions computed for object METEOR 2-8 DEB.

Target Orbit TCA Probability of collision Miss distance Type
OSCAR 18 (WEBERSAT) SSO 2025-01-21 04:23:51 0.0002943764 565.0 (m) PAYLOAD
FENGYUN 1C DEB SSO 2024-11-13 03:49:10 0.0003055244 543.0 (m) DEBRIS
COSMOS 2251 DEB LEO 2024-08-15 17:43:18 0.0001311726 258.0 (m) DEBRIS

Associated space launch

Second generation soviet meteorological satellite

METEOR 2-8 DEB was lifted into orbit during the mission ‘Tsiklon-3 | Meteor-2 8’, on board a Tsiklon-3 space rocket.

The launch took place on March 25, 1982, 9:50 a.m. from 32/1.

For more information about the launch, click the button.

Launch to space Tsiklon-3 | Meteor-2 8
Tsiklon-3 | Meteor-2 8

Agency: N/A

Status: Launch Successful

Launch date: March 25, 1982, 9:50 a.m. UTC

Rocket: Tsiklon-3

Launch pad: 32/1

Location: Plesetsk Cosmodrome, Russian Federation

...

Latest news about this satellite

There are no fresh news available about this satellite. Check back as we update our databases every day.


Newsletter sign-up

Weekly statistics, charts and insights to help you stay on top of the space industry.